Total_Precipitation_Accumulation
0.01 0.01 0.02 0.01 0.02 0.01 0.01 0.02 0.06 0.09 0.11 0.13 0.15 0.15 0.15 0.13 0.12 0.12 0.11 0.11 0.11 0.14 0.19 0.24 0.26 0.28 0.30 0.29 0.20 0.12 0.09 0.08 0.06 0.05 0.04 0.05 0.07 0.08 0.12 0.10 0.09 0.07 0.03
0.01 0.01 0.02 0.01 0.02 0.02 0.01 0.02 0.05 0.08 0.10 0.11 0.11 0.11 0.12 0.12 0.12 0.12 0.12 0.13 0.15 0.18 0.18 0.19 0.23 0.26 0.25 0.21 0.15 0.09 0.06 0.05 0.05 0.08 0.11 0.17 0.21 0.19 0.20 0.18 0.16 0.13 0.04
0.01 0.00 0.01 0.02 0.03 0.03 0.03 0.03 0.04 0.08 0.11 0.13 0.13 0.11 0.09 0.09 0.09 0.10 0.11 0.14 0.19 0.23 0.21 0.19 0.18 0.19 0.18 0.14 0.09 0.05 0.04 0.04 0.08 0.13 0.30 0.43 0.44 0.35 0.32 0.28 0.27 0.17 0.07
0.02 0.00 0.01 0.01 0.03 0.05 0.04 0.05 0.05 0.08 0.12 0.17 0.18 0.16 0.13 0.10 0.10 0.11 0.12 0.14 0.19 0.22 0.19 0.15 0.12 0.11 0.09 0.06 0.04 0.03 0.03 0.05 0.10 0.19 0.45 0.47 0.44 0.38 0.31 0.31 0.37 0.34 0.25
0.02 0.01 0.01 0.01 0.02 0.05 0.06 0.07 0.08 0.11 0.15 0.20 0.23 0.24 0.18 0.12 0.10 0.13 0.16 0.16 0.17 0.20 0.21 0.17 0.11 0.07 0.04 0.04 0.03 0.02 0.03 0.06 0.12 0.29 0.55 0.67 0.62 0.52 0.39 0.33 0.37 0.41 0.41
0.01 0.00 0.01 0.01 0.02 0.06 0.08 0.10 0.12 0.14 0.18 0.24 0.28 0.27 0.20 0.13 0.12 0.15 0.19 0.21 0.22 0.24 0.28 0.23 0.21 0.13 0.08 0.05 0.03 0.03 0.06 0.10 0.17 0.41 0.61 0.75 0.65 0.56 0.40 0.31 0.30 0.41 0.44
0.02 0.01 0.00 0.02 0.03 0.07 0.09 0.10 0.12 0.16 0.20 0.26 0.30 0.26 0.19 0.14 0.12 0.14 0.21 0.23 0.26 0.28 0.26 0.22 0.20 0.15 0.12 0.11 0.10 0.11 0.14 0.19 0.28 0.46 0.63 0.58 0.57 0.45 0.34 0.30 0.25 0.24 0.29
0.02 0.01 0.01 0.02 0.03 0.11 0.17 0.12 0.11 0.14 0.18 0.24 0.29 0.25 0.18 0.14 0.16 0.20 0.21 0.24 0.26 0.23 0.18 0.17 0.16 0.14 0.15 0.18 0.19 0.20 0.23 0.25 0.26 0.36 0.47 0.45 0.36 0.26 0.29 0.30 0.24 0.19 0.17
0.08 0.05 0.02 0.02 0.02 0.06 0.09 0.08 0.09 0.11 0.14 0.20 0.24 0.28 0.22 0.17 0.24 0.28 0.26 0.26 0.29 0.23 0.18 0.17 0.18 0.15 0.19 0.24 0.19 0.17 0.17 0.15 0.14 0.17 0.28 0.37 0.24 0.19 0.20 0.20 0.17 0.16 0.14
0.31 0.39 0.17 0.09 0.04 0.03 0.02 0.04 0.06 0.07 0.09 0.12 0.13 0.16 0.16 0.17 0.21 0.23 0.20 0.19 0.21 0.16 0.11 0.11 0.12 0.12 0.10 0.09 0.06 0.04 0.04 0.04 0.05 0.09 0.18 0.22 0.21 0.19 0.16 0.13 0.11 0.12 0.12
0.54 0.72 0.50 0.19 0.05 0.03 0.03 0.02 0.03 0.03 0.05 0.05 0.04 0.06 0.11 0.20 0.25 0.23 0.14 0.11 0.08 0.05 0.03 0.02 0.02 0.02 0.01 0.01 0.01 0.02 0.02 0.02 0.05 0.09 0.18 0.25 0.21 0.19 0.17 0.13 0.10 0.09 0.09
0.64 0.61 0.47 0.12 0.04 0.03 0.03 0.03 0.04 0.04 0.03 0.04 0.07 0.06 0.14 0.30 0.34 0.23 0.17 0.07 0.03 0.02 0.02 0.01 0.01 0.01 0.01 0.01 0.02 0.02 0.01 0.02 0.05 0.08 0.14 0.19 0.19 0.19 0.18 0.13 0.10 0.10 0.09
0.58 0.33 0.17 0.12 0.08 0.05 0.05 0.06 0.07 0.08 0.08 0.08 0.12 0.11 0.20 0.21 0.13 0.09 0.11 0.08 0.05 0.04 0.05 0.06 0.03 0.02 0.02 0.01 0.02 0.02 0.02 0.03 0.04 0.04 0.08 0.13 0.15 0.18 0.18 0.14 0.11 0.11 0.12
0.34 0.24 0.14 0.11 0.08 0.06 0.05 0.06 0.07 0.08 0.08 0.09 0.12 0.10 0.16 0.18 0.13 0.12 0.14 0.14 0.15 0.14 0.14 0.10 0.07 0.05 0.04 0.03 0.04 0.08 0.08 0.06 0.06 0.06 0.10 0.11 0.12 0.16 0.19 0.18 0.16 0.16 0.15
0.35 0.31 0.17 0.12 0.08 0.06 0.06 0.05 0.04 0.06 0.07 0.10 0.12 0.10 0.10 0.11 0.12 0.15 0.15 0.16 0.16 0.18 0.19 0.15 0.10 0.10 0.09 0.10 0.09 0.09 0.09 0.10 0.12 0.15 0.13 0.12 0.11 0.14 0.19 0.20 0.21 0.21 0.21
0.58 0.49 0.25 0.11 0.05 0.04 0.04 0.04 0.05 0.06 0.10 0.14 0.14 0.12 0.09 0.14 0.20 0.20 0.21 0.22 0.17 0.18 0.24 0.28 0.25 0.21 0.16 0.17 0.13 0.13 0.17 0.16 0.16 0.18 0.20 0.21 0.18 0.16 0.19 0.23 0.26 0.26 0.25
0.79 0.71 0.34 0.13 0.06 0.06 0.06 0.06 0.08 0.09 0.11 0.16 0.20 0.18 0.13 0.16 0.25 0.27 0.30 0.29 0.25 0.24 0.27 0.28 0.29 0.28 0.27 0.28 0.26 0.24 0.21 0.16 0.14 0.15 0.20 0.23 0.24 0.22 0.21 0.24 0.24 0.25 0.26
1.11 1.09 0.49 0.17 0.09 0.10 0.13 0.15 0.15 0.15 0.17 0.18 0.22 0.23 0.18 0.22 0.32 0.39 0.41 0.41 0.40 0.39 0.46 0.48 0.47 0.47 0.46 0.43 0.41 0.34 0.29 0.24 0.20 0.21 0.25 0.27 0.30 0.32 0.32 0.26 0.22 0.22 0.22
1.66 1.38 0.62 0.31 0.25 0.23 0.27 0.30 0.35 0.34 0.33 0.34 0.37 0.38 0.39 0.41 0.45 0.53 0.61 0.67 0.67 0.72 0.71 0.64 0.68 0.73 0.72 0.64 0.50 0.42 0.36 0.32 0.30 0.28 0.27 0.29 0.32 0.33 0.31 0.26 0.23 0.21 0.19
2.08 1.59 0.93 0.69 0.63 0.56 0.53 0.57 0.60 0.64 0.67 0.68 0.65 0.63 0.63 0.65 0.70 0.87 0.96 1.00 1.01 1.04 1.02 1.02 0.97 0.79 0.66 0.57 0.43 0.38 0.34 0.29 0.26 0.24 0.21 0.19 0.18 0.20 0.23 0.23 0.20 0.18 0.17
1.10 1.02 0.93 0.90 0.83 0.78 0.82 0.89 1.02 1.17 1.22 1.15 1.11 1.09 1.12 1.20 1.31 1.44 1.45 1.42 1.34 1.33 1.30 1.16 0.98 0.80 0.66 0.56 0.52 0.47 0.37 0.26 0.21 0.19 0.18 0.19 0.18 0.16 0.15 0.15 0.15 0.13 0.12
0.84 1.01 1.02 0.96 0.98 1.07 1.31 1.56 1.87 2.09 2.07 1.97 1.85 1.79 1.79 1.76 1.70 1.68 1.66 1.57 1.46 1.37 1.25 1.13 1.02 0.93 0.82 0.71 0.62 0.57 0.44 0.32 0.20 0.14 0.13 0.13 0.12 0.10 0.09 0.08 0.08 0.08 0.08
0.96 1.15 1.21 1.24 1.43 1.68 1.97 2.39 2.78 2.84 2.78 2.75 2.56 2.46 2.29 2.08 1.94 1.86 1.73 1.64 1.51 1.36 1.25 1.14 1.03 0.96 0.84 0.71 0.60 0.55 0.47 0.40 0.29 0.18 0.13 0.11 0.10 0.08 0.06 0.05 0.06 0.07 0.09
1.08 1.30 1.45 1.63 1.96 2.33 2.63 2.95 3.20 3.27 3.22 3.15 2.88 2.63 2.32 2.05 1.89 1.76 1.63 1.50 1.38 1.25 1.13 1.01 0.93 0.83 0.73 0.63 0.52 0.44 0.38 0.32 0.30 0.24 0.14 0.10 0.08 0.07 0.07 0.05 0.04 0.04 0.06
1.01 1.33 1.58 1.77 2.18 2.60 2.90 3.08 3.28 3.41 3.37 3.16 2.73 2.30 2.01 1.81 1.64 1.47 1.28 1.15 1.08 1.00 0.88 0.74 0.64 0.55 0.48 0.41 0.36 0.32 0.29 0.26 0.24 0.25 0.20 0.12 0.08 0.07 0.06 0.06 0.05 0.04 0.04
0.83 1.11 1.35 1.58 2.09 2.59 2.93 3.11 3.25 3.29 3.06 2.66 2.24 1.88 1.66 1.51 1.38 1.22 1.08 0.93 0.80 0.67 0.54 0.43 0.36 0.31 0.28 0.26 0.23 0.21 0.19 0.19 0.18 0.20 0.20 0.14 0.11 0.07 0.04 0.03 0.03 0.02 0.03